Weather History for Chesapeake, VA

Change the Weather History Date:

Monday, January 7, 2013

  Actual Average (KORF) Record (KORF)
Temperature  
Mean Temperature 39 °F 40 °F  
Max Temperature 50 °F 48 °F 76 °F (1907)
Min Temperature 28 °F 33 °F 13 °F (1884)
Degree Days  
Heating Degree Days 26 25  
Month to date heating degree days 170  
Since 1 July heating degree days 1349  
Cooling Degree Days 0 0  
Month to date cooling degree days 0  
Year to date cooling degree days 0  
Moisture  
Dew Point 30 °F    
Average Humidity 75    
Maximum Humidity 100    
Minimum Humidity 40    
Precipitation  
Precipitation 0.00 in 0.11 in 1.47 in (1938)
Month to date precipitation 0.75  
Year to date precipitation 0.75  
Snow  
Snow 0.00 in 0.00 in 6.00 in (1912)
Month to date snowfall 0.5  
Since 1 July snowfall 1.7  
Snow Depth -    
Sea Level Pressure  
Sea Level Pressure 30.36 in    
Wind  
Wind Speed 3 mph (North)    
Max Wind Speed 12 mph    
Max Gust Speed 21 mph    
Visibility 10 miles    
Events      
T = Trace of Precipitation, MM = Missing Value Source: NWS Daily Summary

Daily Weather History Graph

Daily Weather History Graph

Search for Another Location

Airport:

Trip Planner

Search our weather history database for the weather conditions in past years. The results will help you decide how hot, cold, wet, or windy it might be!

Date:

Astronomy

Jan. 07, 2013 Rise Set
Actual Time 7:18 AM EST 5:05 PM EST
Civil Twilight 6:49 AM EST 5:34 PM EST
Nautical Twilight 6:17 AM EST 6:06 PM EST
Astronomical Twilight 5:46 AM EST 6:37 PM EST
Moon 2:41 AM EST (1/7) 1:13 PM EST (1/7)
Length of Visible Light 10h 44m
Length of Day
9h 47m
Waning Crescent, 23% of the Moon is Illuminated
Jan 7
Waning Crescent
Jan 11
New
Jan 18
First Quarter
Jan 26
Full
Feb 3
Last Quarter

Hourly Weather History & Observations

Time (EST) Temp. Windchill Dew Point Humidity Pressure Visibility Wind Dir Wind Speed Gust Speed Precip Events Conditions
12:35 AM 39.2 °F 37.0 °F 37.4 °F 93% 30.15 in 10.0 mi WNW 3.5 mph - N/A   Clear
12:55 AM 39.2 °F - 37.4 °F 93% 30.15 in 10.0 mi Calm Calm - N/A   Mostly Cloudy
1:15 AM 39.2 °F 37.0 °F 37.4 °F 93% 30.16 in 10.0 mi WNW 3.5 mph - N/A   Overcast
1:35 AM 41.0 °F - 37.4 °F 87% 30.15 in 10.0 mi Calm Calm - N/A   Overcast
1:55 AM 41.0 °F - 35.6 °F 81% 30.16 in 10.0 mi Calm Calm - N/A   Mostly Cloudy
2:15 AM 39.2 °F - 35.6 °F 87% 30.17 in 10.0 mi Calm Calm - N/A   Clear
2:35 AM 39.2 °F - 33.8 °F 81% 30.17 in 10.0 mi Calm Calm - N/A   Clear
2:55 AM 37.4 °F - 33.8 °F 87% 30.18 in 10.0 mi Calm Calm - N/A   Clear
3:15 AM 37.4 °F 34.9 °F 33.8 °F 87% 30.19 in 10.0 mi WNW 3.5 mph - N/A   Clear
3:35 AM 37.4 °F - 32.0 °F 81% 30.19 in 10.0 mi Calm Calm - N/A   Clear
3:55 AM 33.8 °F - 30.2 °F 87% 30.19 in 10.0 mi Calm Calm - N/A   Clear
4:15 AM 33.8 °F - 32.0 °F 93% 30.20 in 10.0 mi Calm Calm - N/A   Clear
4:35 AM 35.6 °F 32.8 °F 33.8 °F 93% 30.21 in 10.0 mi NW 3.5 mph - N/A   Clear
4:55 AM 35.6 °F - 32.0 °F 87% 30.22 in 10.0 mi Calm Calm - N/A   Clear
5:15 AM 33.8 °F - 30.2 °F 87% 30.23 in 10.0 mi Calm Calm - N/A   Clear
5:35 AM 35.6 °F 31.7 °F 30.2 °F 81% 30.24 in 10.0 mi NW 4.6 mph - N/A   Clear
5:55 AM 35.6 °F 31.7 °F 32.0 °F 87% 30.26 in 10.0 mi NW 4.6 mph - N/A   Clear
6:15 AM 35.6 °F 31.7 °F 32.0 °F 87% 30.27 in 10.0 mi NW 4.6 mph - N/A   Clear
6:35 AM 30.2 °F - 30.2 °F 100% 30.28 in 10.0 mi Calm Calm - N/A   Clear
6:55 AM 30.2 °F - 30.2 °F 100% 30.29 in 10.0 mi Calm Calm - N/A   Clear
7:15 AM 32.0 °F - 30.2 °F 93% 30.30 in 10.0 mi Calm Calm - N/A   Clear
7:35 AM 30.2 °F - 30.2 °F 100% 30.31 in 10.0 mi Calm Calm - N/A   Clear
7:55 AM 30.2 °F - 30.2 °F 100% 30.33 in 10.0 mi Calm Calm - N/A   Clear
8:15 AM 33.8 °F - 32.0 °F 93% 30.34 in 10.0 mi Calm Calm - N/A   Clear
8:35 AM 35.6 °F - 33.8 °F 93% 30.35 in 10.0 mi Calm Calm - N/A   Clear
8:55 AM 41.0 °F - 35.6 °F 81% 30.37 in 10.0 mi Calm Calm - N/A   Clear
9:35 AM 46.4 °F 42.4 °F 33.8 °F 62% 30.39 in 10.0 mi North 8.1 mph - N/A   Clear
9:55 AM 46.4 °F 42.4 °F 32.0 °F 57% 30.40 in 10.0 mi North 8.1 mph - N/A   Clear
10:15 AM 48.2 °F - 30.2 °F 50% 30.41 in 10.0 mi North 10.4 mph - N/A   Clear
10:35 AM 48.2 °F - 30.2 °F 50% 30.41 in 10.0 mi North 10.4 mph 16.1 mph N/A   Clear
10:55 AM 48.2 °F - 30.2 °F 50% 30.41 in 10.0 mi NNE 9.2 mph 17.3 mph N/A   Clear
11:15 AM 48.2 °F - 28.4 °F 46% 30.41 in 10.0 mi North 11.5 mph 19.6 mph N/A   Clear
11:35 AM 48.2 °F - 28.4 °F 46% 30.40 in 10.0 mi North 9.2 mph 20.7 mph N/A   Clear
11:55 AM 48.2 °F - 28.4 °F 46% 30.40 in 10.0 mi North 10.4 mph 16.1 mph N/A   Clear
12:35 PM 48.2 °F - 26.6 °F 43% 30.39 in 10.0 mi North 10.4 mph 17.3 mph N/A   Clear
12:55 PM 50.0 °F - 28.4 °F 43% 30.39 in 10.0 mi North 9.2 mph - N/A   Clear
1:15 PM 50.0 °F - 28.4 °F 43% 30.39 in 10.0 mi North 9.2 mph - N/A   Clear
1:35 PM 50.0 °F - 26.6 °F 40% 30.39 in 10.0 mi NE 10.4 mph - N/A   Clear
2:15 PM 50.0 °F - 26.6 °F 40% 30.40 in 10.0 mi NE 8.1 mph - N/A   Clear
2:35 PM 50.0 °F - 26.6 °F 40% 30.41 in 10.0 mi North 5.8 mph - N/A   Clear
2:55 PM 50.0 °F - 26.6 °F 40% 30.41 in 10.0 mi NNE 8.1 mph - N/A   Clear
3:15 PM 48.2 °F - 26.6 °F 43% 30.41 in 10.0 mi NE 6.9 mph - N/A   Clear
3:35 PM 50.0 °F - 28.4 °F 43% 30.41 in 10.0 mi North 5.8 mph - N/A   Clear
3:55 PM 48.2 °F - 26.6 °F 43% 30.42 in 10.0 mi NE 6.9 mph - N/A   Clear
4:15 PM 48.2 °F - 28.4 °F 46% 30.42 in 10.0 mi NE 6.9 mph - N/A   Clear
4:35 PM 46.4 °F 42.9 °F 28.4 °F 50% 30.43 in 10.0 mi NNE 6.9 mph - N/A   Clear
4:55 PM 44.6 °F 41.4 °F 28.4 °F 53% 30.43 in 10.0 mi NE 5.8 mph - N/A   Clear
5:15 PM 44.6 °F 42.2 °F 28.4 °F 53% 30.44 in 10.0 mi ENE 4.6 mph - N/A   Clear
5:35 PM 42.8 °F 41.1 °F 28.4 °F 57% 30.45 in 10.0 mi NE 3.5 mph - N/A   Clear
5:55 PM 41.0 °F - 28.4 °F 61% 30.46 in 10.0 mi Calm Calm - N/A   Clear
6:15 PM 39.2 °F - 30.2 °F 70% 30.46 in 10.0 mi Calm Calm - N/A   Clear
6:35 PM 39.2 °F - 30.2 °F 70% 30.46 in 10.0 mi Calm Calm - N/A   Clear
6:55 PM 37.4 °F - 30.2 °F 75% 30.46 in 10.0 mi Calm Calm - N/A   Clear
7:15 PM 35.6 °F - 30.2 °F 81% 30.46 in 10.0 mi Calm Calm - N/A   Clear
7:35 PM 33.8 °F - 30.2 °F 87% 30.46 in 10.0 mi Calm Calm - N/A   Clear
7:55 PM 33.8 °F - 30.2 °F 87% 30.46 in 10.0 mi Calm Calm - N/A   Clear
8:15 PM 32.0 °F - 30.2 °F 93% 30.46 in 10.0 mi Calm Calm - N/A   Clear
8:35 PM 30.2 °F - 28.4 °F 93% 30.47 in 10.0 mi Calm Calm - N/A   Clear
8:55 PM 32.0 °F - 28.4 °F 87% 30.47 in 10.0 mi Calm Calm - N/A   Clear
9:15 PM 32.0 °F - 28.4 °F 87% 30.47 in 10.0 mi Calm Calm - N/A   Clear
9:35 PM 30.2 °F - 28.4 °F 93% 30.47 in 10.0 mi Calm Calm - N/A   Clear
9:55 PM 30.2 °F - 28.4 °F 93% 30.47 in 10.0 mi Calm Calm - N/A   Clear
10:15 PM 30.2 °F - 28.4 °F 93% 30.46 in 10.0 mi Calm Calm - N/A   Clear
10:35 PM 30.2 °F - 28.4 °F 93% 30.46 in 10.0 mi Calm Calm - N/A   Clear
10:55 PM 28.4 °F - 28.4 °F 100% 30.46 in 10.0 mi Calm Calm - N/A   Clear
11:15 PM 28.4 °F - 28.4 °F 100% 30.47 in 10.0 mi Calm Calm - N/A   Clear
11:35 PM 28.4 °F - 28.4 °F 100% 30.46 in 10.0 mi Calm Calm - N/A   Clear
11:55 PM 28.4 °F - 28.4 °F 100% 30.46 in 10.0 mi Calm Calm - N/A   Clear